Year,Month,Day,Hour,Minute,Value (Times are PST for temperature in C)
2018,12,09,00,00,3.90
2018,12,09,00,01,3.90
2018,12,09,00,02,3.90
2018,12,09,00,03,3.90
2018,12,09,00,04,3.90
2018,12,09,00,05,3.90
2018,12,09,00,06,3.90
2018,12,09,00,07,3.90
2018,12,09,00,08,3.90
2018,12,09,00,09,3.90
2018,12,09,00,10,3.90
2018,12,09,00,11,3.90
2018,12,09,00,12,3.90
2018,12,09,00,13,3.90
2018,12,09,00,14,3.80
2018,12,09,00,15,3.80
2018,12,09,00,16,3.80
2018,12,09,00,17,3.80
2018,12,09,00,18,3.80
2018,12,09,00,19,3.80
2018,12,09,00,20,3.80
2018,12,09,00,21,3.80
2018,12,09,00,22,3.80
2018,12,09,00,23,3.80
2018,12,09,00,24,3.80
2018,12,09,00,25,3.80
2018,12,09,00,26,3.80
2018,12,09,00,27,3.80
2018,12,09,00,28,3.80
2018,12,09,00,29,3.80
2018,12,09,00,30,3.80
2018,12,09,00,31,3.80
2018,12,09,00,32,3.80
2018,12,09,00,33,3.80
2018,12,09,00,34,3.80
2018,12,09,00,35,3.70
2018,12,09,00,36,3.70
2018,12,09,00,37,3.70
2018,12,09,00,38,3.70
2018,12,09,00,39,3.70
2018,12,09,00,40,3.70
2018,12,09,00,41,3.70
2018,12,09,00,42,3.70
2018,12,09,00,43,3.70
2018,12,09,00,44,3.70
2018,12,09,00,45,3.70
2018,12,09,00,46,3.70
2018,12,09,00,47,3.70
2018,12,09,00,48,3.70
2018,12,09,00,49,3.70
2018,12,09,00,50,3.70
2018,12,09,00,51,3.70
2018,12,09,00,52,3.70
2018,12,09,00,53,3.70
2018,12,09,00,54,3.70
2018,12,09,00,55,3.70
2018,12,09,00,56,3.70
2018,12,09,00,57,3.70
2018,12,09,00,58,3.70
2018,12,09,00,59,3.70
2018,12,09,01,00,3.70
2018,12,09,01,01,3.60
2018,12,09,01,02,3.60
2018,12,09,01,03,3.60
2018,12,09,01,04,3.60
2018,12,09,01,05,3.60
2018,12,09,01,06,3.60
2018,12,09,01,07,3.60
2018,12,09,01,08,3.60
2018,12,09,01,09,3.60
2018,12,09,01,10,3.60
2018,12,09,01,11,3.60
2018,12,09,01,12,3.60
2018,12,09,01,13,3.60
2018,12,09,01,14,3.60
2018,12,09,01,15,3.60
2018,12,09,01,16,3.60
2018,12,09,01,17,3.60
2018,12,09,01,18,3.60
2018,12,09,01,19,3.60
2018,12,09,01,20,3.60
2018,12,09,01,21,3.60
2018,12,09,01,22,3.60
2018,12,09,01,23,3.60
2018,12,09,01,24,3.60
2018,12,09,01,25,3.60
2018,12,09,01,26,3.60
2018,12,09,01,27,3.60
2018,12,09,01,28,3.60
2018,12,09,01,29,3.70
2018,12,09,01,30,3.70
2018,12,09,01,31,3.70
2018,12,09,01,32,3.70
2018,12,09,01,33,3.70
2018,12,09,01,34,3.70
2018,12,09,01,35,3.70
2018,12,09,01,36,3.70
2018,12,09,01,37,3.70
2018,12,09,01,38,3.70
2018,12,09,01,39,3.70
2018,12,09,01,40,3.70
2018,12,09,01,41,3.70
2018,12,09,01,42,3.80
2018,12,09,01,43,3.80
2018,12,09,01,44,3.80
2018,12,09,01,45,3.80
2018,12,09,01,46,3.80
2018,12,09,01,47,3.80
2018,12,09,01,48,3.80
2018,12,09,01,49,3.80
2018,12,09,01,50,3.90
2018,12,09,01,51,3.90
2018,12,09,01,52,3.90
2018,12,09,01,53,3.90
2018,12,09,01,54,3.90
2018,12,09,01,55,3.90
2018,12,09,01,56,3.90
2018,12,09,01,57,3.90
2018,12,09,01,58,3.90
2018,12,09,01,59,3.90
2018,12,09,02,00,3.90
2018,12,09,02,01,3.80
2018,12,09,02,02,3.80
2018,12,09,02,03,3.80
2018,12,09,02,04,3.80
2018,12,09,02,05,3.80
2018,12,09,02,06,3.80
2018,12,09,02,07,3.80
2018,12,09,02,08,3.80
2018,12,09,02,09,3.80
2018,12,09,02,10,3.80
2018,12,09,02,11,3.70
2018,12,09,02,12,3.70
2018,12,09,02,13,3.70
2018,12,09,02,14,3.70
2018,12,09,02,15,3.70
2018,12,09,02,16,3.70
2018,12,09,02,17,3.70
2018,12,09,02,18,3.70
2018,12,09,02,19,3.70
2018,12,09,02,20,3.70
2018,12,09,02,21,3.70
2018,12,09,02,22,3.70
2018,12,09,02,23,3.70
2018,12,09,02,24,3.70
2018,12,09,02,25,3.70
2018,12,09,02,26,3.70
2018,12,09,02,27,3.70
2018,12,09,02,28,3.70
2018,12,09,02,29,3.60
2018,12,09,02,30,3.60
2018,12,09,02,31,3.60
2018,12,09,02,32,3.60
2018,12,09,02,33,3.60
2018,12,09,02,34,3.60
2018,12,09,02,35,3.60
2018,12,09,02,36,3.60
2018,12,09,02,37,3.60
2018,12,09,02,38,3.60
2018,12,09,02,39,3.60
2018,12,09,02,40,3.60
2018,12,09,02,41,3.50
2018,12,09,02,42,3.50
2018,12,09,02,43,3.50
2018,12,09,02,44,3.50
2018,12,09,02,45,3.50
2018,12,09,02,46,3.50
2018,12,09,02,47,3.50
2018,12,09,02,48,3.50
2018,12,09,02,49,3.50
2018,12,09,02,50,3.50
2018,12,09,02,51,3.50
2018,12,09,02,52,3.50
2018,12,09,02,53,3.50
2018,12,09,02,54,3.50
2018,12,09,02,55,3.50
2018,12,09,02,56,3.50
2018,12,09,02,57,3.50
2018,12,09,02,58,3.50
2018,12,09,02,59,3.50
2018,12,09,03,00,3.50
2018,12,09,03,01,3.50
2018,12,09,03,02,3.50
2018,12,09,03,03,3.50
2018,12,09,03,04,3.50
2018,12,09,03,05,3.50
2018,12,09,03,06,3.50
2018,12,09,03,07,3.50
2018,12,09,03,08,3.50
2018,12,09,03,09,3.50
2018,12,09,03,10,3.50
2018,12,09,03,11,3.50
2018,12,09,03,12,3.50
2018,12,09,03,13,3.50
2018,12,09,03,14,3.50
2018,12,09,03,15,3.40
2018,12,09,03,16,3.40
2018,12,09,03,17,3.40
2018,12,09,03,18,3.40
2018,12,09,03,19,3.40
2018,12,09,03,20,3.40
2018,12,09,03,21,3.40
2018,12,09,03,22,3.40
2018,12,09,03,23,3.40
2018,12,09,03,24,3.40
2018,12,09,03,25,3.40
2018,12,09,03,26,3.40
2018,12,09,03,27,3.40
2018,12,09,03,28,3.40
2018,12,09,03,29,3.40
2018,12,09,03,30,3.50
2018,12,09,03,31,3.50
2018,12,09,03,32,3.50
2018,12,09,03,33,3.50
2018,12,09,03,34,3.50
2018,12,09,03,35,3.50
2018,12,09,03,36,3.50
2018,12,09,03,37,3.50
2018,12,09,03,38,3.50
2018,12,09,03,39,3.50
2018,12,09,03,40,3.50
2018,12,09,03,41,3.50
2018,12,09,03,42,3.50
2018,12,09,03,43,3.50
2018,12,09,03,44,3.50
2018,12,09,03,45,3.50
2018,12,09,03,46,3.50
2018,12,09,03,47,3.50
2018,12,09,03,48,3.50
2018,12,09,03,49,3.50
2018,12,09,03,50,3.50
2018,12,09,03,51,3.50
2018,12,09,03,52,3.50
2018,12,09,03,53,3.50
2018,12,09,03,54,3.50
2018,12,09,03,55,3.60
2018,12,09,03,56,3.60
2018,12,09,03,57,3.60
2018,12,09,03,58,3.60
2018,12,09,03,59,3.60
2018,12,09,04,00,3.60
2018,12,09,04,01,3.70
2018,12,09,04,02,3.70
2018,12,09,04,03,3.70
2018,12,09,04,04,3.70
2018,12,09,04,05,3.70
2018,12,09,04,06,3.80
2018,12,09,04,07,3.80
2018,12,09,04,08,3.90
2018,12,09,04,09,3.90
2018,12,09,04,10,3.90
2018,12,09,04,11,4.00
2018,12,09,04,12,4.00
2018,12,09,04,13,4.10
2018,12,09,04,14,4.10
2018,12,09,04,15,4.10
2018,12,09,04,16,4.10
2018,12,09,04,17,4.10
2018,12,09,04,18,4.10
2018,12,09,04,19,4.10
2018,12,09,04,20,4.10
2018,12,09,04,21,4.30
2018,12,09,04,22,4.40
2018,12,09,04,23,4.40
2018,12,09,04,24,4.50
2018,12,09,04,25,4.50
2018,12,09,04,26,4.60
2018,12,09,04,27,4.60
2018,12,09,04,28,4.70
2018,12,09,04,29,4.70
2018,12,09,04,30,4.70
2018,12,09,04,31,4.70
2018,12,09,04,32,4.70
2018,12,09,04,33,4.80
2018,12,09,04,34,4.80
2018,12,09,04,35,4.80
2018,12,09,04,36,4.80
2018,12,09,04,37,4.80
2018,12,09,04,38,4.80
2018,12,09,04,39,4.80
2018,12,09,04,40,4.80
2018,12,09,04,41,4.90
2018,12,09,04,42,4.90
2018,12,09,04,43,4.90
2018,12,09,04,44,4.90
2018,12,09,04,45,4.90
2018,12,09,04,46,4.90
2018,12,09,04,47,4.90
2018,12,09,04,48,4.90
2018,12,09,04,49,4.90
2018,12,09,04,50,4.90
2018,12,09,04,51,4.80
2018,12,09,04,52,4.80
2018,12,09,04,53,4.80
2018,12,09,04,54,4.80
2018,12,09,04,55,4.80
2018,12,09,04,56,4.80
2018,12,09,04,57,4.80
2018,12,09,04,58,4.80
2018,12,09,04,59,4.80
2018,12,09,05,00,4.80
2018,12,09,05,01,4.80
2018,12,09,05,02,4.80
2018,12,09,05,03,4.70
2018,12,09,05,04,4.70
2018,12,09,05,05,4.70
2018,12,09,05,06,4.70
2018,12,09,05,07,4.60
2018,12,09,05,08,4.60
2018,12,09,05,09,4.60
2018,12,09,05,10,4.60
2018,12,09,05,11,4.50
2018,12,09,05,12,4.50
2018,12,09,05,13,4.50
2018,12,09,05,14,4.40
2018,12,09,05,15,4.40
2018,12,09,05,16,4.40
2018,12,09,05,17,4.40
2018,12,09,05,18,4.40
2018,12,09,05,19,4.40
2018,12,09,05,20,4.40
2018,12,09,05,21,4.30
2018,12,09,05,22,4.40
2018,12,09,05,23,4.40
2018,12,09,05,24,4.40
2018,12,09,05,25,4.40
2018,12,09,05,26,4.40
2018,12,09,05,27,4.40
2018,12,09,05,28,4.40
2018,12,09,05,29,4.40
2018,12,09,05,30,4.40
2018,12,09,05,31,4.40
2018,12,09,05,32,4.40
2018,12,09,05,33,4.30
2018,12,09,05,34,4.30
2018,12,09,05,35,4.30
2018,12,09,05,36,4.30
2018,12,09,05,37,4.30
2018,12,09,05,38,4.30
2018,12,09,05,39,4.30
2018,12,09,05,40,4.30
2018,12,09,05,41,4.30
2018,12,09,05,42,4.30
2018,12,09,05,43,4.30
2018,12,09,05,44,4.30
2018,12,09,05,45,4.20
2018,12,09,05,46,4.20
2018,12,09,05,47,4.20
2018,12,09,05,48,4.20
2018,12,09,05,49,4.20
2018,12,09,05,50,4.20
2018,12,09,05,51,4.20
2018,12,09,05,52,4.20
2018,12,09,05,53,4.20
2018,12,09,05,54,4.20
2018,12,09,05,55,4.20
2018,12,09,05,56,4.20
2018,12,09,05,57,4.20
2018,12,09,05,58,4.20
2018,12,09,05,59,4.20
2018,12,09,06,00,4.20
2018,12,09,06,01,4.20
2018,12,09,06,02,4.20
2018,12,09,06,03,4.20
2018,12,09,06,04,4.20
2018,12,09,06,05,4.20
2018,12,09,06,06,4.20
2018,12,09,06,07,4.20
2018,12,09,06,08,4.20
2018,12,09,06,09,4.20
2018,12,09,06,10,4.20
2018,12,09,06,11,4.20
2018,12,09,06,12,4.20
2018,12,09,06,13,4.20
2018,12,09,06,14,4.20
2018,12,09,06,15,4.20
2018,12,09,06,16,4.20
2018,12,09,06,17,4.20
2018,12,09,06,18,4.20
2018,12,09,06,19,4.20
2018,12,09,06,20,4.20
2018,12,09,06,21,4.20
2018,12,09,06,22,4.20
2018,12,09,06,23,4.20
2018,12,09,06,24,4.20
2018,12,09,06,25,4.20
2018,12,09,06,26,4.20
2018,12,09,06,27,4.20
2018,12,09,06,28,4.20
2018,12,09,06,29,4.20
2018,12,09,06,30,4.20
2018,12,09,06,31,4.20
2018,12,09,06,32,4.20
2018,12,09,06,33,4.20
2018,12,09,06,34,4.20
2018,12,09,06,35,4.20
2018,12,09,06,36,4.20
2018,12,09,06,37,4.20
2018,12,09,06,38,4.20
2018,12,09,06,39,4.20
2018,12,09,06,40,4.20
2018,12,09,06,41,4.20
2018,12,09,06,42,4.20
2018,12,09,06,43,4.20
2018,12,09,06,44,4.20
2018,12,09,06,45,4.20
2018,12,09,06,46,4.20
2018,12,09,06,47,4.20
2018,12,09,06,48,4.20
2018,12,09,06,49,4.20
2018,12,09,06,50,4.20
2018,12,09,06,51,4.20
2018,12,09,06,52,4.20
2018,12,09,06,53,4.20
2018,12,09,06,54,4.20
2018,12,09,06,55,4.20
2018,12,09,06,56,4.30
2018,12,09,06,57,4.30
2018,12,09,06,58,4.30
2018,12,09,06,59,4.30
2018,12,09,07,00,4.30
2018,12,09,07,01,4.30
2018,12,09,07,02,4.30
2018,12,09,07,03,4.30
2018,12,09,07,04,4.30
2018,12,09,07,05,4.30
2018,12,09,07,06,4.30
2018,12,09,07,07,4.40
2018,12,09,07,08,4.40
2018,12,09,07,09,4.40
2018,12,09,07,10,4.40
2018,12,09,07,11,4.40
2018,12,09,07,12,4.40
2018,12,09,07,13,4.40
2018,12,09,07,14,4.40
2018,12,09,07,15,4.40
2018,12,09,07,16,4.40
2018,12,09,07,17,4.50
2018,12,09,07,18,4.50
2018,12,09,07,19,4.50
2018,12,09,07,20,4.50
2018,12,09,07,21,4.50
2018,12,09,07,22,4.60
2018,12,09,07,23,4.60
2018,12,09,07,24,4.60
2018,12,09,07,25,4.60
2018,12,09,07,26,4.60
2018,12,09,07,27,4.60
2018,12,09,07,28,4.60
2018,12,09,07,29,4.60
2018,12,09,07,30,4.70
2018,12,09,07,31,4.70
2018,12,09,07,32,4.70
2018,12,09,07,33,4.70
2018,12,09,07,34,4.70
2018,12,09,07,35,4.70
2018,12,09,07,36,4.80
2018,12,09,07,37,4.80
2018,12,09,07,38,4.80
2018,12,09,07,39,4.80
2018,12,09,07,40,4.80
2018,12,09,07,41,4.90
2018,12,09,07,42,4.90
2018,12,09,07,43,4.90
2018,12,09,07,44,4.90
2018,12,09,07,45,5.00
2018,12,09,07,46,5.00
2018,12,09,07,47,5.00
2018,12,09,07,48,5.00
2018,12,09,07,49,5.10
2018,12,09,07,50,5.10
2018,12,09,07,51,5.10
2018,12,09,07,52,5.10
2018,12,09,07,53,5.10
2018,12,09,07,54,5.20
2018,12,09,07,55,5.20
2018,12,09,07,56,5.20
2018,12,09,07,57,5.20
2018,12,09,07,58,5.20
2018,12,09,07,59,5.20
2018,12,09,08,00,5.20
2018,12,09,08,01,5.30
2018,12,09,08,02,5.30
2018,12,09,08,03,5.30
2018,12,09,08,04,5.30
2018,12,09,08,05,5.30
2018,12,09,08,06,5.30
2018,12,09,08,07,5.30
2018,12,09,08,08,5.30
2018,12,09,08,09,5.40
2018,12,09,08,10,5.40
2018,12,09,08,11,5.40
2018,12,09,08,12,5.40
2018,12,09,08,13,5.40
2018,12,09,08,14,5.40
2018,12,09,08,15,5.40
2018,12,09,08,16,5.40
2018,12,09,08,17,5.50
2018,12,09,08,18,5.50
2018,12,09,08,19,5.50
2018,12,09,08,20,5.50
2018,12,09,08,21,5.50
2018,12,09,08,22,5.50
2018,12,09,08,23,5.60
2018,12,09,08,24,5.60
2018,12,09,08,25,5.60
2018,12,09,08,26,5.70
2018,12,09,08,27,5.70
2018,12,09,08,28,5.70
2018,12,09,08,29,5.70
2018,12,09,08,30,5.70
2018,12,09,08,31,5.70
2018,12,09,08,32,5.70
2018,12,09,08,33,5.70
2018,12,09,08,34,5.70
2018,12,09,08,35,5.70
2018,12,09,08,36,5.70
2018,12,09,08,37,5.70
2018,12,09,08,38,5.70
2018,12,09,08,39,5.80
2018,12,09,08,40,5.80
2018,12,09,08,41,5.80
2018,12,09,08,42,5.80
2018,12,09,08,43,5.80
2018,12,09,08,44,5.80
2018,12,09,08,45,5.80
2018,12,09,08,46,5.80
2018,12,09,08,47,5.80
2018,12,09,08,48,5.80
2018,12,09,08,49,5.80
2018,12,09,08,50,5.80
2018,12,09,08,51,5.80
2018,12,09,08,52,5.80
2018,12,09,08,53,5.80
2018,12,09,08,54,5.80
2018,12,09,08,55,5.80
2018,12,09,08,56,5.80
2018,12,09,08,57,5.80
2018,12,09,08,58,5.90
2018,12,09,08,59,5.90
2018,12,09,09,00,5.90
2018,12,09,09,01,5.90
2018,12,09,09,02,5.90
2018,12,09,09,03,5.90
2018,12,09,09,04,5.90
2018,12,09,09,05,5.90
2018,12,09,09,06,5.90
2018,12,09,09,07,5.90
2018,12,09,09,08,5.90
2018,12,09,09,09,5.90
2018,12,09,09,10,5.90
2018,12,09,09,11,5.90
2018,12,09,09,12,5.90
2018,12,09,09,13,5.90
2018,12,09,09,14,5.90
2018,12,09,09,15,5.90
2018,12,09,09,16,5.90
2018,12,09,09,17,5.90
2018,12,09,09,18,5.90
2018,12,09,09,19,5.90
2018,12,09,09,20,5.90
2018,12,09,09,21,5.90
2018,12,09,09,22,5.90
2018,12,09,09,23,5.90
2018,12,09,09,24,5.90
2018,12,09,09,25,5.90
2018,12,09,09,26,5.90
2018,12,09,09,27,6.00
2018,12,09,09,28,6.00
2018,12,09,09,29,6.00
2018,12,09,09,30,6.10
2018,12,09,09,31,6.10
2018,12,09,09,32,6.10
2018,12,09,09,33,6.10
2018,12,09,09,34,6.20
2018,12,09,09,35,6.20
2018,12,09,09,36,6.20
2018,12,09,09,37,6.20
2018,12,09,09,38,6.30
2018,12,09,09,39,6.30
2018,12,09,09,40,6.30
2018,12,09,09,41,6.30
2018,12,09,09,42,6.30
2018,12,09,09,43,6.30
2018,12,09,09,44,6.30
2018,12,09,09,45,6.30
2018,12,09,09,46,6.30
2018,12,09,09,47,6.30
2018,12,09,09,48,6.30
2018,12,09,09,49,6.30
2018,12,09,09,50,6.30
2018,12,09,09,51,6.30
2018,12,09,09,52,6.40
2018,12,09,09,53,6.40
2018,12,09,09,54,6.40
2018,12,09,09,55,6.40
2018,12,09,09,56,6.40
2018,12,09,09,57,6.40
2018,12,09,09,58,6.40
2018,12,09,09,59,6.40
2018,12,09,10,00,6.40
2018,12,09,10,01,6.40
2018,12,09,10,02,6.40
2018,12,09,10,03,6.40
2018,12,09,10,04,6.50
2018,12,09,10,05,6.50
2018,12,09,10,06,6.50
2018,12,09,10,07,6.50
2018,12,09,10,08,6.50
2018,12,09,10,09,6.50
2018,12,09,10,10,6.50
2018,12,09,10,11,6.50
2018,12,09,10,12,6.50
2018,12,09,10,13,6.50
2018,12,09,10,14,6.50
2018,12,09,10,15,6.50
2018,12,09,10,16,6.50
2018,12,09,10,17,6.50
2018,12,09,10,18,6.50
2018,12,09,10,19,6.50
2018,12,09,10,20,6.50
2018,12,09,10,21,6.60
2018,12,09,10,22,6.60
2018,12,09,10,23,6.60
2018,12,09,10,24,6.60
2018,12,09,10,25,6.60
2018,12,09,10,26,6.60
2018,12,09,10,27,6.60
2018,12,09,10,28,6.60
2018,12,09,10,29,6.60
2018,12,09,10,30,6.60
2018,12,09,10,31,6.60
2018,12,09,10,32,6.60
2018,12,09,10,33,6.60
2018,12,09,10,34,6.60
2018,12,09,10,35,6.60
2018,12,09,10,36,6.50
2018,12,09,10,37,6.50
2018,12,09,10,38,6.50
2018,12,09,10,39,6.50
2018,12,09,10,40,6.50
2018,12,09,10,41,6.50
2018,12,09,10,42,6.50
2018,12,09,10,43,6.40
2018,12,09,10,44,6.50
2018,12,09,10,45,6.50
2018,12,09,10,46,6.50
2018,12,09,10,47,6.50
2018,12,09,10,48,6.50
2018,12,09,10,49,6.50
2018,12,09,10,50,6.50
2018,12,09,10,51,6.50
2018,12,09,10,52,6.50
2018,12,09,10,53,6.50
2018,12,09,10,54,6.50
2018,12,09,10,55,6.50
2018,12,09,10,56,6.50
2018,12,09,10,57,6.50
2018,12,09,10,58,6.50
2018,12,09,10,59,6.50
2018,12,09,11,00,6.50
2018,12,09,11,01,6.50
2018,12,09,11,02,6.50
2018,12,09,11,03,6.50
2018,12,09,11,04,6.50
2018,12,09,11,05,6.50
2018,12,09,11,06,6.50
2018,12,09,11,07,6.50
2018,12,09,11,08,6.50
2018,12,09,11,09,6.50
2018,12,09,11,10,6.50
2018,12,09,11,11,6.40
2018,12,09,11,12,6.40
2018,12,09,11,13,6.40
2018,12,09,11,14,6.40
2018,12,09,11,15,6.40
2018,12,09,11,16,6.40
2018,12,09,11,17,6.40
2018,12,09,11,18,6.40
2018,12,09,11,19,6.40
2018,12,09,11,20,6.40
2018,12,09,11,21,6.40
2018,12,09,11,22,6.40
2018,12,09,11,23,6.40
2018,12,09,11,24,6.40
2018,12,09,11,25,6.40
2018,12,09,11,26,6.40
2018,12,09,11,27,6.40
2018,12,09,11,28,6.40
2018,12,09,11,29,6.40
2018,12,09,11,30,6.40
2018,12,09,11,31,6.50
2018,12,09,11,32,6.50
2018,12,09,11,33,6.50
2018,12,09,11,34,6.50
2018,12,09,11,35,6.50
2018,12,09,11,36,6.50
2018,12,09,11,37,6.50
2018,12,09,11,38,6.50
2018,12,09,11,39,6.50
2018,12,09,11,40,6.50
2018,12,09,11,41,6.50
2018,12,09,11,42,6.50
2018,12,09,11,43,6.50
2018,12,09,11,44,6.50
2018,12,09,11,45,6.50
2018,12,09,11,46,6.50
2018,12,09,11,47,6.50
2018,12,09,11,48,6.50
2018,12,09,11,49,6.50
2018,12,09,11,50,6.50
2018,12,09,11,51,6.50
2018,12,09,11,52,6.50
2018,12,09,11,53,6.50
2018,12,09,11,54,6.50
2018,12,09,11,55,6.50
2018,12,09,11,56,6.50
2018,12,09,11,57,6.50
2018,12,09,11,58,6.50
2018,12,09,11,59,6.50
2018,12,09,12,00,6.50
2018,12,09,12,01,6.50
2018,12,09,12,02,6.50
2018,12,09,12,03,6.50
2018,12,09,12,04,6.50
2018,12,09,12,05,6.50
2018,12,09,12,06,6.50
2018,12,09,12,07,6.50
2018,12,09,12,08,6.50
2018,12,09,12,09,6.50
2018,12,09,12,10,6.50
2018,12,09,12,11,6.50
2018,12,09,12,12,6.50
2018,12,09,12,13,6.50
2018,12,09,12,14,6.50
2018,12,09,12,15,6.50
2018,12,09,12,16,6.50
2018,12,09,12,17,6.50
2018,12,09,12,18,6.50
2018,12,09,12,19,6.50
2018,12,09,12,20,6.50
2018,12,09,12,21,6.50
2018,12,09,12,22,6.50
2018,12,09,12,23,6.60
2018,12,09,12,24,6.60
2018,12,09,12,25,6.60
2018,12,09,12,26,6.60
2018,12,09,12,27,6.60
2018,12,09,12,28,6.60
2018,12,09,12,29,6.60
2018,12,09,12,30,6.60
2018,12,09,12,31,6.60
2018,12,09,12,32,6.60
2018,12,09,12,33,6.60
2018,12,09,12,34,6.60
2018,12,09,12,35,6.60
2018,12,09,12,36,6.60
2018,12,09,12,37,6.60
2018,12,09,12,38,6.60
2018,12,09,12,39,6.60
2018,12,09,12,40,6.60
2018,12,09,12,41,6.60
2018,12,09,12,42,6.60
2018,12,09,12,43,6.60
2018,12,09,12,44,6.60
2018,12,09,12,45,6.60
2018,12,09,12,46,6.60
2018,12,09,12,47,6.60
2018,12,09,12,48,6.60
2018,12,09,12,49,6.60
2018,12,09,12,50,6.60
2018,12,09,12,51,6.60
2018,12,09,12,52,6.60
2018,12,09,12,53,6.60
2018,12,09,12,54,6.60
2018,12,09,12,55,6.60
2018,12,09,12,56,6.60
2018,12,09,12,57,6.60
2018,12,09,12,58,6.60
2018,12,09,12,59,6.60
2018,12,09,13,00,6.60
2018,12,09,13,01,6.60
2018,12,09,13,02,6.60
2018,12,09,13,03,6.60
2018,12,09,13,04,6.60
2018,12,09,13,05,6.60
2018,12,09,13,06,6.60
2018,12,09,13,07,6.60
2018,12,09,13,08,6.60
2018,12,09,13,09,6.60
2018,12,09,13,10,6.60
2018,12,09,13,11,6.60
2018,12,09,13,12,6.60
2018,12,09,13,13,6.60
2018,12,09,13,14,6.60
2018,12,09,13,15,6.60
2018,12,09,13,16,6.60
2018,12,09,13,17,6.60
2018,12,09,13,18,6.60
2018,12,09,13,19,6.50
2018,12,09,13,20,6.60
2018,12,09,13,21,6.60
2018,12,09,13,22,6.60
2018,12,09,13,23,6.50
2018,12,09,13,24,6.50
2018,12,09,13,25,6.60
2018,12,09,13,26,6.60
2018,12,09,13,27,6.60
2018,12,09,13,28,6.50
2018,12,09,13,29,6.50
2018,12,09,13,30,6.50
2018,12,09,13,31,6.50
2018,12,09,13,32,6.60
2018,12,09,13,33,6.60
2018,12,09,13,34,6.60
2018,12,09,13,35,6.60
2018,12,09,13,36,6.60
2018,12,09,13,37,6.60
2018,12,09,13,38,6.60
2018,12,09,13,39,6.60
2018,12,09,13,40,6.60
2018,12,09,13,41,6.60
2018,12,09,13,42,6.60
2018,12,09,13,43,6.60
2018,12,09,13,44,6.60
2018,12,09,13,45,6.60
2018,12,09,13,46,6.60
2018,12,09,13,47,6.60
2018,12,09,13,48,6.60
2018,12,09,13,49,6.60
2018,12,09,13,50,6.60
2018,12,09,13,51,6.60
2018,12,09,13,52,6.60
2018,12,09,13,53,6.60
2018,12,09,13,54,6.70
2018,12,09,13,55,6.70
2018,12,09,13,56,6.70
2018,12,09,13,57,6.70
2018,12,09,13,58,6.70
2018,12,09,13,59,6.70
2018,12,09,14,00,6.70
2018,12,09,14,01,6.70
2018,12,09,14,02,6.70
2018,12,09,14,03,6.70
2018,12,09,14,04,6.70
2018,12,09,14,05,6.70
2018,12,09,14,06,6.70
2018,12,09,14,07,6.80
2018,12,09,14,08,6.80
2018,12,09,14,09,6.80
2018,12,09,14,10,6.80
2018,12,09,14,11,6.80
2018,12,09,14,12,6.80
2018,12,09,14,13,6.80
2018,12,09,14,14,6.80
2018,12,09,14,15,6.80
2018,12,09,14,16,6.80
2018,12,09,14,17,6.80
2018,12,09,14,18,6.80
2018,12,09,14,19,6.80
2018,12,09,14,20,6.80
2018,12,09,14,21,6.80
2018,12,09,14,22,6.80
2018,12,09,14,23,6.80
2018,12,09,14,24,6.80
2018,12,09,14,25,6.80
2018,12,09,14,26,6.80
2018,12,09,14,27,6.80
2018,12,09,14,28,6.80
2018,12,09,14,29,6.80
2018,12,09,14,30,6.80
2018,12,09,14,31,6.80
2018,12,09,14,32,6.80
2018,12,09,14,33,6.80
2018,12,09,14,34,6.80
2018,12,09,14,35,6.80
2018,12,09,14,36,6.80
2018,12,09,14,37,6.80
2018,12,09,14,38,6.70
2018,12,09,14,39,6.70
2018,12,09,14,40,6.70
2018,12,09,14,41,6.70
2018,12,09,14,42,6.70
2018,12,09,14,43,6.70
2018,12,09,14,44,6.70
2018,12,09,14,45,6.70
2018,12,09,14,46,6.70
2018,12,09,14,47,6.70
2018,12,09,14,48,6.70
2018,12,09,14,49,6.70
2018,12,09,14,50,6.70
2018,12,09,14,51,6.70
2018,12,09,14,52,6.70
2018,12,09,14,53,6.70
2018,12,09,14,54,6.70
2018,12,09,14,55,6.70
2018,12,09,14,56,6.70
2018,12,09,14,57,6.70
2018,12,09,14,58,6.70
2018,12,09,14,59,6.80
2018,12,09,15,00,6.70
2018,12,09,15,01,6.70
2018,12,09,15,02,6.80
2018,12,09,15,03,6.80
2018,12,09,15,04,6.80
2018,12,09,15,05,6.80
2018,12,09,15,06,6.80
2018,12,09,15,07,6.80
2018,12,09,15,08,6.70
2018,12,09,15,09,6.70
2018,12,09,15,10,6.70
2018,12,09,15,11,6.70
2018,12,09,15,12,6.70
2018,12,09,15,13,6.70
2018,12,09,15,14,6.80
2018,12,09,15,15,6.80
2018,12,09,15,16,6.70
2018,12,09,15,17,6.70
2018,12,09,15,18,6.80
2018,12,09,15,19,6.80
2018,12,09,15,20,6.80
2018,12,09,15,21,6.80
2018,12,09,15,22,6.80
2018,12,09,15,23,6.70
2018,12,09,15,24,6.70
2018,12,09,15,25,6.80
2018,12,09,15,26,6.80
2018,12,09,15,27,6.80
2018,12,09,15,28,6.80
2018,12,09,15,29,6.70
2018,12,09,15,30,6.70
2018,12,09,15,31,6.70
2018,12,09,15,32,6.70
2018,12,09,15,33,6.70
2018,12,09,15,34,6.70
2018,12,09,15,35,6.70
2018,12,09,15,36,6.70
2018,12,09,15,37,6.70
2018,12,09,15,38,6.70
2018,12,09,15,39,6.70
2018,12,09,15,40,6.70
2018,12,09,15,41,6.70
2018,12,09,15,42,6.70
2018,12,09,15,43,6.70
2018,12,09,15,44,6.70
2018,12,09,15,45,6.60
2018,12,09,15,46,6.60
2018,12,09,15,47,6.60
2018,12,09,15,48,6.60
2018,12,09,15,49,6.60
2018,12,09,15,50,6.60
2018,12,09,15,51,6.60
2018,12,09,15,52,6.60
2018,12,09,15,53,6.60
2018,12,09,15,54,6.60
2018,12,09,15,55,6.60
2018,12,09,15,56,6.60
2018,12,09,15,57,6.60
2018,12,09,15,58,6.60
2018,12,09,15,59,6.60
2018,12,09,16,00,6.60
2018,12,09,16,01,6.60
2018,12,09,16,02,6.60
2018,12,09,16,03,6.60
2018,12,09,16,04,6.60
2018,12,09,16,05,6.60
2018,12,09,16,06,6.50
2018,12,09,16,07,6.50
2018,12,09,16,08,6.50
2018,12,09,16,09,6.50
2018,12,09,16,10,6.50
2018,12,09,16,11,6.50
2018,12,09,16,12,6.50
2018,12,09,16,13,6.50
2018,12,09,16,14,6.40
2018,12,09,16,15,6.40
2018,12,09,16,16,6.40
2018,12,09,16,17,6.40
2018,12,09,16,18,6.40
2018,12,09,16,19,6.50
2018,12,09,16,20,6.40
2018,12,09,16,21,6.40
2018,12,09,16,22,6.40
2018,12,09,16,23,6.40
2018,12,09,16,24,6.40
2018,12,09,16,25,6.40
2018,12,09,16,26,6.40
2018,12,09,16,27,6.40
2018,12,09,16,28,6.40
2018,12,09,16,29,6.40
2018,12,09,16,30,6.40
2018,12,09,16,31,6.40
2018,12,09,16,32,6.40
2018,12,09,16,33,6.40
2018,12,09,16,34,6.40
2018,12,09,16,35,6.40
2018,12,09,16,36,6.40
2018,12,09,16,37,6.40
2018,12,09,16,38,6.40
2018,12,09,16,39,6.40
2018,12,09,16,40,6.40
2018,12,09,16,41,6.40
2018,12,09,16,42,6.40
2018,12,09,16,43,6.40
2018,12,09,16,44,6.40
2018,12,09,16,45,6.40
2018,12,09,16,46,6.40
2018,12,09,16,47,6.40
2018,12,09,16,48,6.40
2018,12,09,16,49,6.40
2018,12,09,16,50,6.40
2018,12,09,16,51,6.40
2018,12,09,16,52,6.40
2018,12,09,16,53,6.40
2018,12,09,16,54,6.40
2018,12,09,16,55,6.40
2018,12,09,16,56,6.40
2018,12,09,16,57,6.40
2018,12,09,16,58,6.40
2018,12,09,16,59,6.40
2018,12,09,17,00,6.40
2018,12,09,17,01,6.40
2018,12,09,17,02,6.40
2018,12,09,17,03,6.40
2018,12,09,17,04,6.40
2018,12,09,17,05,6.40
2018,12,09,17,06,6.40
2018,12,09,17,07,6.40
2018,12,09,17,08,6.40
2018,12,09,17,09,6.40
2018,12,09,17,10,6.40
2018,12,09,17,11,6.40
2018,12,09,17,12,6.40
2018,12,09,17,13,6.40
2018,12,09,17,14,6.40
2018,12,09,17,15,6.40
2018,12,09,17,16,6.40
2018,12,09,17,17,6.40
2018,12,09,17,18,6.40
2018,12,09,17,19,6.40
2018,12,09,17,20,6.40
2018,12,09,17,21,6.40
2018,12,09,17,22,6.40
2018,12,09,17,23,6.40
2018,12,09,17,24,6.40
2018,12,09,17,25,6.40
2018,12,09,17,26,6.40
2018,12,09,17,27,6.40
2018,12,09,17,28,6.40
2018,12,09,17,29,6.40
2018,12,09,17,30,6.40
2018,12,09,17,31,6.40
2018,12,09,17,32,6.40
2018,12,09,17,33,6.40
2018,12,09,17,34,6.40
2018,12,09,17,35,6.40
2018,12,09,17,36,6.40
2018,12,09,17,37,6.40
2018,12,09,17,38,6.40
2018,12,09,17,39,6.40
2018,12,09,17,40,6.40
2018,12,09,17,41,6.40
2018,12,09,17,42,6.40
2018,12,09,17,43,6.40
2018,12,09,17,44,6.40
2018,12,09,17,45,6.40
2018,12,09,17,46,6.40
2018,12,09,17,47,6.50
2018,12,09,17,48,6.50
2018,12,09,17,49,6.50
2018,12,09,17,50,6.50
2018,12,09,17,51,6.50
2018,12,09,17,52,6.50
2018,12,09,17,53,6.50
2018,12,09,17,54,6.50
2018,12,09,17,55,6.50
2018,12,09,17,56,6.50
2018,12,09,17,57,6.50
2018,12,09,17,58,6.50
2018,12,09,17,59,6.50
2018,12,09,18,00,6.50
2018,12,09,18,01,6.50
2018,12,09,18,02,6.50
2018,12,09,18,03,6.50
2018,12,09,18,04,6.50
2018,12,09,18,05,6.50
2018,12,09,18,06,6.50